[[{"header":{"parameterUnit":"m.s-1","parameterCategory":1,"la1":30.2991,"la2":30.254,"lo1":-89.0895,"lo2":-89.0444,"dy":0.0017,"dx":0.0017,"nx":28,"ny":28,"refTime":"2025-01-14T03:00:00:Z","depth":0,"parameterNumber":2,"parameterNumberName":"U-component_of_WINDS"},"data":[0,0,0,0,0,0,0,0,0,0,0,0,0,0,0,0,0,0,0,0,0,0,0,0,0,0,0,0,0,0,0,0,0,0,0,0,0,0,0,0,0,0,0,0,0,0,0,0,0,0,0,0,0,0,0,0,0,0,-4.6771,-4.6772,0,-4.6847,-4.6848,-4.6849,-4.6707,-4.6702,-4.6697,-4.6693,-4.6775,-4.6781,-4.6788,0,0,0,0,0,0,0,0,0,0,0,0,0,-4.6507,-4.6512,-4.6771,-4.6772,-4.6773,-4.6847,-4.6848,-4.6849,-4.6708,-4.6702,-4.6696,-4.6691,-4.6773,-4.678,-4.6788,0,0,0,0,0,0,0,0,0,0,0,0,0,-4.6606,-4.6514,-4.6771,-4.6711,-4.6706,-4.6847,-4.6848,-4.6849,-4.6709,-4.6702,-4.6695,-4.6688,-4.677,-4.678,-4.6789,-4.6992,0,0,-4.682,-4.6824,0,0,0,0,0,0,0,0,-4.6601,-4.6616,-4.6719,-4.6715,-4.6711,-4.676,-4.6784,-4.6897,-4.6711,-4.6708,-4.6693,-4.6685,-4.6776,-4.6785,-4.6815,-4.6996,-4.7,-4.6821,-4.6826,-4.6831,-4.6834,0,0,0,0,0,0,0,-4.6594,-4.6612,-4.6801,-4.6721,-4.6716,-4.6682,-4.6688,-4.6805,-4.6781,-4.6708,-4.6698,-4.6708,-4.6772,-4.6806,-4.6816,-4.7001,-4.682,-4.6829,-4.6835,-4.6839,-4.7353,-4.736,0,0,0,0,0,0,-4.6594,-4.6607,-4.6799,-4.6803,-4.6637,-4.6692,-4.6699,-4.6751,-4.6779,-4.6777,-4.6714,-4.6701,-4.6792,-4.6804,-4.6818,-4.7058,-4.6831,-4.684,-4.6846,-4.7345,-4.7355,-4.7363,0,0,0,0,0,0,-4.6589,-4.6612,-4.6795,-4.6702,-4.6723,-4.6704,-4.6764,-4.6757,-4.679,-4.6784,-4.6779,-4.6753,-4.6787,-4.6804,-4.695,-4.7059,-4.6844,-4.6853,-4.7336,-4.7348,-4.7359,-4.754,0,0,0,0,0,0,-4.6582,-4.6611,-4.6688,-4.6705,-4.6729,-4.6926,-4.6771,-4.6763,-4.6807,-4.6791,-4.6819,-4.6817,-4.6783,-4.6936,-4.696,-4.7069,-4.6861,-4.7326,-4.7342,-4.7355,-4.7524,-4.7557,-4.7584,0,0,0,0,0,-4.6573,-4.6737,-4.6692,-4.6716,-4.6823,-4.6932,-4.6946,-4.6902,-4.6816,-4.6893,-4.6889,-4.6816,-4.7043,-4.6952,-4.6978,-4.7091,-4.7319,-4.7337,-4.7354,-4.7511,-4.755,-4.7583,0,0,0,0,0,0,-4.6734,-4.6738,-4.6689,-4.6863,-4.6898,-4.6908,-4.7004,-4.6945,-4.7007,-4.6989,-4.6933,-4.6941,-4.7099,-4.7109,-4.7008,-4.7289,-4.7167,-4.719,-4.7277,-4.7314,-4.7344,-4.7339,-4.6869,0,0,0,0,0,-4.6789,-4.6876,-4.6875,-4.7029,-4.7049,-4.7024,-4.707,-4.7033,-4.7068,-4.7083,-4.7089,-4.7127,-4.7207,-4.7261,-4.7334,-4.7524,-4.7529,-4.7615,-4.7645,-4.7669,-4.7691,-4.7793,-4.7832,-4.742,-4.742,-4.742,0,0,-4.6906,-4.6918,-4.6977,-4.7062,-4.7085,-4.7177,-4.7038,-4.7141,-4.721,-4.7099,-4.7237,-4.7243,-4.7282,-4.7451,-4.7526,-4.7465,-4.7805,-4.7692,-4.7711,-4.7719,-4.7815,-4.7854,-4.7889,-4.7432,-4.743,-4.7428,0,0,-4.7165,-4.7183,-4.7313,-4.7338,-4.7374,-4.7356,-4.7388,-4.7407,-4.7407,-4.7544,-4.7462,-4.7543,-4.7682,-4.7713,-4.7747,-4.8017,-4.7952,-4.8042,-4.8199,-4.8299,-4.8332,-4.836,-4.8458,-4.8494,-4.8063,-4.8063,-4.8064,0,-4.7305,-4.744,-4.7388,-4.7497,-4.7537,-4.7439,-4.7571,-4.7599,-4.7658,-4.7689,-4.7618,-4.7789,-4.7808,-4.7984,-4.805,-4.808,-4.8115,-4.804,-4.8331,-4.8359,-4.8385,-4.8478,-4.8514,-4.8074,-4.8073,-4.8072,-4.8071,0,-4.7612,-4.7707,-4.7807,-4.7866,-4.7917,-4.8038,-4.8004,-4.8062,-4.8021,-4.8011,-4.8152,-4.8171,-4.8246,-4.8285,-4.8246,-4.8456,-4.8416,-4.834,-4.8216,-4.8436,-4.8522,-4.8557,-4.809,-4.8086,-4.8083,-4.808,0,0,-4.7977,-4.8003,-4.8041,-4.8066,-4.8099,-4.8172,-4.8288,-4.836,-4.8412,-4.8455,-4.8552,-4.8671,-4.86,-4.8639,-4.8602,-4.869,-4.8904,-4.8602,-4.8602,-4.8659,-4.9138,-4.9197,-4.9239,-4.886,-4.8867,-4.8872,-4.9135,0,-4.8235,-4.8434,-4.839,-4.8586,-4.8674,-4.8581,-4.8682,-4.8714,-4.8707,-4.8782,-4.8774,-4.886,-4.8758,-4.8781,-4.8864,-4.8861,-4.9,-4.8841,-4.8952,-4.8957,-4.8948,-4.9284,-4.9347,-4.9595,-4.9169,-4.9174,-4.9178,0,-4.8564,-4.8619,-4.8824,-4.8842,-4.8877,-4.8969,-4.9031,-4.9103,-4.9137,-4.9126,-4.9169,-4.9115,-4.9231,-4.9104,-4.9264,-4.9157,-4.9199,-4.9204,-4.9213,-4.9223,-4.9083,-4.9306,-4.9672,-4.9711,-4.9231,-4.9227,-4.9223,0,-4.8812,-4.8937,-4.9075,-4.91,-4.9124,-4.9191,-4.9204,-4.9231,-4.9277,-4.9332,-4.9362,-4.943,-4.9468,-4.9523,-4.9489,-4.9399,-4.9656,-4.9525,-4.9651,-4.9653,-4.9711,-4.9709,-5.0092,-4.9736,-4.9735,-4.9735,-4.9734,0,-4.9106,-4.9236,-4.9187,-4.9273,-4.9416,-4.9363,-4.9507,-4.9509,-4.9533,-4.9619,-4.9542,-4.9625,-4.9574,-4.9652,-4.9627,-4.9764,-4.9781,-4.9777,-4.9769,-4.9785,-4.9786,-4.9814,-4.9797,-4.9744,-4.9742,-4.974,-4.9739,0,-4.9408,-4.938,-4.9526,-4.9536,-4.9542,-4.9647,-4.9656,-4.9736,-4.9723,-4.9832,-4.9855,-4.9835,-4.9924,-4.9894,-4.999,-4.9972,-5.0147,-5.0116,-5.0136,-5.0129,-5.0257,-5.0246,-5.0674,-5.0728,-5.0335,-5.0339,-5.0342,0,-4.9599,-4.9696,-4.9717,-4.9768,-4.9786,-4.987,-4.9916,-4.9868,-4.992,-4.9965,-5.0041,-5.0122,-5.0185,-5.033,-5.0325,-5.0398,-5.0369,-5.0513,-5.0379,-5.0393,-5.0373,-5.0369,-5.0379,-5.0541,-5.0546,-5.0549,-5.0552,0,-4.9941,-4.9922,-4.9992,-5.0057,-5.0114,-5.0163,-5.0206,-5.0252,-5.0207,-5.0269,-5.0358,-5.0406,-5.0502,-5.0585,-5.065,-5.0664,-5.0603,-5.0594,-5.0628,-5.0646,-5.0655,-5.0653,-5.0211,-5.0585,-5.0582,-5.058,-5.0578,-5.0577,-5.0195,-5.0277,-5.0304,-5.0384,-5.041,-5.0452,-5.0528,-5.0524,-5.0596,-5.067,-5.0637,-5.074,-5.0771,-5.0852,-5.0876,-5.0956,-5.09,-5.0948,-5.0961,-5.0974,-5.0991,-5.064,-5.0968,-5.0967,-5.0966,-5.0965,-5.0964,0,-5.0534,-5.0547,-5.0621,-5.0682,-5.0745,-5.0678,-5.0721,-5.0779,-5.087,-5.0904,-5.0967,-5.1069,-5.1148,-5.1149,-5.1222,-5.1287,-5.126,-5.1308,-5.1304,-5.1309,-5.1036,-5.1001,-5.1328,-5.1328,-5.1328,-5.1328,-5.1328,-5.1328,-5.0719,-5.0855,-5.084,-5.0988,-5.1,-5.1099,-5.113,-5.1168,-5.1194,-5.1312,-5.1376,-5.1375,-5.1396,-5.1471,-5.1541,-5.1539,-5.157,-5.163,-5.1618,-5.1364,-5.1328,-5.1293,-5.126,-5.1637,-5.1637,-5.1883,-5.1886,-5.1888]},{"header":{"parameterUnit":"m.s-1","parameterCategory":1,"la1":30.2991,"la2":30.254,"lo1":-89.0895,"lo2":-89.0444,"dy":0.0017,"dx":0.0017,"nx":28,"ny":28,"refTime":"2025-01-14T03:00:00:Z","depth":0,"parameterNumber":3,"parameterNumberName":"V-component_of_WINDS"},"data":[0,0,0,0,0,0,0,0,0,0,0,0,0,0,0,0,0,0,0,0,0,0,0,0,0,0,0,0,0,0,0,0,0,0,0,0,0,0,0,0,0,0,0,0,0,0,0,0,0,0,0,0,0,0,0,0,0,0,-2.0347,-2.0347,0,-2.0337,-2.0337,-2.0337,-2.0313,-2.0313,-2.0312,-2.0312,-2.0302,-2.0302,-2.0303,0,0,0,0,0,0,0,0,0,0,0,0,0,-2.0346,-2.0346,-2.0347,-2.0347,-2.0347,-2.0337,-2.0337,-2.0337,-2.0313,-2.0313,-2.0312,-2.0312,-2.0302,-2.0302,-2.0303,0,0,0,0,0,0,0,0,0,0,0,0,0,-2.0342,-2.0346,-2.0347,-2.0334,-2.0333,-2.0337,-2.0337,-2.0337,-2.0314,-2.0313,-2.0312,-2.0311,-2.0302,-2.0302,-2.0303,-2.0319,0,0,-2.0304,-2.0304,0,0,0,0,0,0,0,0,-2.0343,-2.0342,-2.0336,-2.0335,-2.0333,-2.0326,-2.0333,-2.0331,-2.0314,-2.0321,-2.0312,-2.0311,-2.0311,-2.031,-2.031,-2.0319,-2.0319,-2.0304,-2.0304,-2.0304,-2.0304,0,0,0,0,0,0,0,-2.0343,-2.0343,-2.0343,-2.0336,-2.0334,-2.0329,-2.0327,-2.0333,-2.032,-2.032,-2.0318,-2.0318,-2.031,-2.031,-2.031,-2.0318,-2.0304,-2.0304,-2.0304,-2.0304,-2.034,-2.0341,0,0,0,0,0,0,-2.0345,-2.0343,-2.0344,-2.0343,-2.0336,-2.0329,-2.0328,-2.0329,-2.032,-2.0318,-2.0318,-2.0316,-2.031,-2.0309,-2.0309,-2.0327,-2.0304,-2.0304,-2.0304,-2.0339,-2.034,-2.0341,0,0,0,0,0,0,-2.0345,-2.0345,-2.0344,-2.0343,-2.0342,-2.033,-2.0332,-2.0329,-2.0329,-2.0318,-2.0316,-2.032,-2.0309,-2.0309,-2.0317,-2.0327,-2.0304,-2.0305,-2.0338,-2.0339,-2.0341,-2.0365,0,0,0,0,0,0,-2.0345,-2.0345,-2.0352,-2.0343,-2.0342,-2.0352,-2.0332,-2.033,-2.033,-2.0327,-2.032,-2.0318,-2.0308,-2.0317,-2.0317,-2.0327,-2.0305,-2.0337,-2.0339,-2.034,-2.0363,-2.0367,-2.037,0,0,0,0,0,-2.0345,-2.0359,-2.0352,-2.0352,-2.035,-2.0352,-2.0352,-2.0341,-2.0331,-2.0337,-2.033,-2.0318,-2.0326,-2.0318,-2.0318,-2.0328,-2.0337,-2.0338,-2.034,-2.0362,-2.0366,-2.037,0,0,0,0,0,0,-2.037,-2.0358,-2.035,-2.0361,-2.0358,-2.0348,-2.0356,-2.0346,-2.0345,-2.0343,-2.0329,-2.0328,-2.0338,-2.0334,-2.0325,-2.0343,-2.0329,-2.0331,-2.0345,-2.035,-2.0353,-2.0353,-2.0305,0,0,0,0,0,-2.0376,-2.038,-2.0369,-2.038,-2.0379,-2.0368,-2.0369,-2.036,-2.0356,-2.0355,-2.0348,-2.0345,-2.0347,-2.0348,-2.0349,-2.0363,-2.036,-2.037,-2.0373,-2.0376,-2.0377,-2.0384,-2.0387,-2.0347,-2.0347,-2.0347,0,0,-2.039,-2.0384,-2.0387,-2.0385,-2.0381,-2.0385,-2.0367,-2.0371,-2.0374,-2.0355,-2.0362,-2.0358,-2.0353,-2.0364,-2.0368,-2.0361,-2.0388,-2.0378,-2.038,-2.038,-2.0386,-2.039,-2.0393,-2.0348,-2.0348,-2.0347,0,0,-2.0417,-2.0413,-2.0422,-2.0419,-2.0413,-2.0406,-2.0408,-2.04,-2.0396,-2.0402,-2.0388,-2.0391,-2.0395,-2.0392,-2.0391,-2.0416,-2.0405,-2.0417,-2.0434,-2.044,-2.0444,-2.0446,-2.0455,-2.0458,-2.0419,-2.0419,-2.0419,0,-2.0435,-2.044,-2.0428,-2.0433,-2.0432,-2.0415,-2.0424,-2.0421,-2.0417,-2.0417,-2.0409,-2.0412,-2.0408,-2.0417,-2.0423,-2.0423,-2.0425,-2.0418,-2.0444,-2.0447,-2.0449,-2.0457,-2.046,-2.042,-2.042,-2.042,-2.042,0,-2.0462,-2.0465,-2.0473,-2.0468,-2.0469,-2.0476,-2.0464,-2.0466,-2.0457,-2.0451,-2.0458,-2.0452,-2.0451,-2.0453,-2.0445,-2.0461,-2.0457,-2.0447,-2.0432,-2.0455,-2.0462,-2.0465,-2.0422,-2.0422,-2.0421,-2.0421,0,0,-2.0504,-2.0492,-2.0495,-2.0492,-2.0485,-2.0488,-2.0494,-2.0493,-2.0494,-2.0492,-2.0496,-2.0499,-2.049,-2.0489,-2.048,-2.0486,-2.0506,-2.0475,-2.0475,-2.048,-2.0522,-2.0529,-2.0533,-2.0499,-2.0499,-2.05,-2.0522,0,-2.0528,-2.0538,-2.0527,-2.0538,-2.0541,-2.0525,-2.053,-2.0527,-2.0521,-2.0522,-2.0515,-2.0517,-2.0505,-2.0504,-2.0509,-2.0502,-2.0514,-2.05,-2.0502,-2.0502,-2.0503,-2.0537,-2.0544,-2.0566,-2.0525,-2.0526,-2.0526,0,-2.0558,-2.0557,-2.0569,-2.056,-2.0561,-2.0566,-2.0563,-2.0565,-2.0561,-2.0556,-2.0554,-2.0544,-2.0549,-2.0536,-2.0542,-2.0534,-2.0534,-2.0531,-2.0531,-2.053,-2.0515,-2.0536,-2.0573,-2.0576,-2.053,-2.053,-2.053,0,-2.0587,-2.0587,-2.0594,-2.0593,-2.0584,-2.0587,-2.0583,-2.0578,-2.0578,-2.0576,-2.0576,-2.0575,-2.0575,-2.0574,-2.0564,-2.0555,-2.0572,-2.0557,-2.0567,-2.0568,-2.0571,-2.0571,-2.0607,-2.0573,-2.0573,-2.0573,-2.0573,0,-2.0615,-2.0622,-2.0607,-2.0611,-2.0619,-2.0606,-2.0615,-2.0609,-2.0605,-2.0608,-2.0594,-2.0597,-2.0584,-2.0586,-2.0578,-2.0584,-2.0584,-2.058,-2.0578,-2.0581,-2.0581,-2.058,-2.0578,-2.0573,-2.0573,-2.0573,-2.0573,0,-2.0647,-2.0637,-2.0644,-2.0634,-2.0632,-2.0638,-2.063,-2.0633,-2.0627,-2.063,-2.063,-2.062,-2.0621,-2.0611,-2.061,-2.0605,-2.0615,-2.061,-2.0616,-2.0614,-2.0625,-2.0623,-2.0661,-2.0665,-2.0629,-2.0629,-2.0629,0,-2.0665,-2.0671,-2.0662,-2.0663,-2.0659,-2.0661,-2.0661,-2.0649,-2.0649,-2.0644,-2.0648,-2.0648,-2.0647,-2.0649,-2.0642,-2.0641,-2.0636,-2.0649,-2.0636,-2.0638,-2.0635,-2.0634,-2.0635,-2.0652,-2.0652,-2.0652,-2.0653,0,-2.0698,-2.0693,-2.0693,-2.0691,-2.0691,-2.0689,-2.0686,-2.0688,-2.0675,-2.0676,-2.0676,-2.0676,-2.0675,-2.0675,-2.0673,-2.0669,-2.0658,-2.0657,-2.0659,-2.0662,-2.0665,-2.0663,-2.0623,-2.0656,-2.0656,-2.0656,-2.0655,-2.0655,-2.0724,-2.0727,-2.0721,-2.0722,-2.0718,-2.0716,-2.0718,-2.0712,-2.0712,-2.071,-2.0703,-2.0705,-2.07,-2.0696,-2.0693,-2.0694,-2.0688,-2.0691,-2.0692,-2.0693,-2.0694,-2.0665,-2.0694,-2.0694,-2.0694,-2.0694,-2.0694,0,-2.0755,-2.075,-2.0751,-2.0747,-2.0747,-2.0738,-2.0734,-2.0735,-2.0736,-2.0732,-2.0732,-2.0733,-2.0732,-2.0725,-2.0723,-2.0726,-2.0721,-2.0726,-2.0725,-2.0724,-2.07,-2.0698,-2.073,-2.073,-2.073,-2.073,-2.073,-2.073,-2.0771,-2.0777,-2.0771,-2.0775,-2.077,-2.0771,-2.077,-2.0768,-2.0764,-2.0766,-2.0765,-2.076,-2.0755,-2.0753,-2.0752,-2.075,-2.075,-2.0756,-2.0752,-2.073,-2.0726,-2.0723,-2.0721,-2.0757,-2.0757,-2.0776,-2.0776,-2.0777]}]]